CAPE
0 0 0 0 0 0 0 0 0 0 0 0 0 0 0 0 0 0 0 0 0 0 0 0 0 0 0 0 0 0 1678 2129 1913 2083 2114 2126 2313 2228 2029 2024 2052 2111 2205 2210 2300 2160 2097 1801 1368 1258 839 904 972 978 1033 1076 1296 1520 1648 1597 1248 1117 1126 1202 1172 1039 1010 904 725 562 583 565 700 666 767 798 710 684 751 611 653 736 810 873 864 765
0 0 0 0 0 0 0 0 0 0 0 0 0 0 0 0 0 0 0 0 0 0 0 0 0 0 0 0 0 0 470 1745 1746 1926 1996 2111 2170 2176 1998 1884 2017 2021 2052 2208 2258 2153 2101 1888 1471 1178 920 967 1040 1008 1051 1152 1393 1540 1586 1298 1071 1186 1281 1230 1116 1112 1018 910 702 531 472 690 693 624 647 714 659 640 589 588 732 819 764 717 684 603
0 0 0 0 0 0 0 0 0 0 0 0 0 0 0 0 0 0 0 0 0 0 0 0 0 0 0 0 0 0 196 1042 1388 1847 1906 1982 2090 2011 1999 1984 2078 2005 1966 2117 2162 2100 2112 1934 1648 1398 1144 1058 1067 1057 1052 1255 1479 1554 1342 871 912 1047 1219 1119 1059 1150 1104 930 709 523 596 785 642 582 610 649 631 643 702 712 726 714 661 714 681 637
0 0 0 0 0 0 0 0 0 0 0 0 0 0 0 0 0 0 0 0 0 0 0 0 0 0 0 0 0 0 0 290 815 1614 1822 1842 1948 1858 1863 1919 1942 2031 1958 1965 2032 2118 2129 1944 1744 1560 1318 1137 1083 1104 1069 1218 1415 1191 889 913 974 1015 1116 1013 1102 1166 1024 841 757 805 933 817 615 588 622 608 565 599 690 603 656 695 721 768 739 681
0 0 0 0 0 0 0 0 0 0 0 0 0 0 0 0 0 0 0 0 0 0 0 0 0 0 0 0 0 162 148 144 761 1400 1727 1700 1781 1804 1771 1740 1801 1885 1928 1924 2036 2142 2143 1967 1784 1611 1385 1192 1076 1122 1078 1078 1044 1011 955 1012 1003 1026 1092 1033 1149 1059 894 944 1005 877 913 816 749 593 562 512 506 614 644 734 748 798 857 846 776 711
0 0 0 0 0 0 0 0 0 0 0 0 0 0 2 1 0 0 0 0 0 0 0 0 0 0 0 112 163 318 299 215 877 1362 1610 1696 1725 1749 1780 1742 1730 1738 1789 1982 2092 2140 2093 1934 1702 1608 1427 1181 1084 1110 1077 1016 919 919 927 1086 1111 978 1026 1126 998 909 949 1156 977 889 880 834 717 546 503 569 554 637 773 878 812 796 858 841 773 716
0 0 0 0 0 0 0 0 0 0 0 0 0 0 2 3 2 1 0 0 0 0 0 0 0 0 0 141 315 470 421 145 708 1214 1502 1619 1697 1770 1784 1723 1698 1769 1764 1802 1901 2035 1931 1719 1574 1450 1244 1190 1080 1094 1065 1023 940 852 1008 1164 1054 984 1102 1025 909 900 1067 1150 947 883 880 749 570 479 540 576 651 728 820 814 804 803 924 856 765 616
0 0 0 0 0 0 0 0 0 0 0 0 0 0 0 2 3 3 0 0 0 0 0 0 0 0 0 0 337 476 453 438 536 941 1254 1489 1633 1648 1642 1614 1595 1659 1726 1852 2027 1962 1688 1532 1346 1186 1189 1191 1080 1097 1054 1011 971 912 1124 1118 1037 1083 1079 1049 1021 1050 1107 1055 941 910 828 606 460 500 535 664 806 843 784 744 761 764 742 689 572 496
0 0 0 0 0 0 0 0 0 0 0 0 0 0 0 0 2 2 0 0 0 0 0 0 0 0 0 186 385 512 481 353 401 757 1048 1293 1437 1457 1486 1525 1582 1738 1977 2089 2040 1799 1595 1420 1085 1162 1218 1159 1091 1114 1073 1014 966 934 1136 1085 1092 1168 1127 1191 1235 1185 1090 933 1016 791 685 445 468 536 629 793 849 800 692 620 591 528 415 322 270 267
0 0 0 0 0 0 0 0 0 0 0 0 0 0 0 0 0 0 1 0 0 0 0 0 0 0 0 65 492 412 650 532 414 570 975 1263 1312 1350 1368 1445 1650 1884 2103 2079 1972 1665 1416 1164 1058 1223 1229 1128 1114 1122 1071 1021 971 884 1085 1096 1148 1202 1197 1220 1147 1030 907 986 1035 695 573 420 404 444 537 610 623 603 514 429 351 272 119 0 0 0
0 0 0 0 0 0 0 0 0 0 0 0 0 0 1 7 0 2 0 0 0 0 0 0 0 0 0 6 288 427 464 499 591 677 805 1041 1222 1260 1364 1507 1752 2026 2051 1958 1797 1497 1198 1012 1070 1264 1244 1113 1126 1089 1028 1029 965 889 1012 1139 1252 1220 1135 1040 979 895 970 1036 936 676 483 334 306 320 343 340 362 375 339 274 264 122 0 0 0 0
0 0 0 0 0 0 0 0 0 0 0 0 2 4 6 7 8 11 1 0 0 0 0 0 0 0 0 64 72 399 415 336 668 736 764 942 1132 1133 1370 1656 1892 2010 1908 1782 1557 1214 1064 1029 1052 1156 1253 1158 1138 1066 984 992 989 976 1006 1216 1285 1207 1118 1064 992 938 983 862 605 614 431 320 275 262 272 230 223 266 256 238 217 0 0 0 0 0
0 0 0 0 0 0 0 0 0 0 2 8 14 11 3 13 8 12 0 0 0 0 2 0 0 0 0 496 549 524 578 586 606 613 783 938 1054 1120 1376 1712 1999 1931 1648 1326 1119 1041 1040 1058 998 987 1203 1208 1147 1059 984 1044 1044 1065 1058 1226 1293 1186 1091 1047 995 950 933 658 445 551 516 383 318 292 0 261 0 0 73 226 104 0 0 0 0 0
0 0 0 0 0 0 0 0 0 0 3 5 6 18 1 9 4 1 0 0 0 0 3 0 0 0 62 582 598 647 569 528 554 530 803 874 942 1041 1325 1783 1900 1566 1116 937 1111 1140 1001 1125 942 833 897 1249 1198 1077 1084 1133 1081 1070 1143 1222 1276 1148 1083 1068 952 869 753 556 458 508 556 531 480 353 0 255 268 242 126 270 174 0 0 0 0 0
0 0 0 0 0 0 0 0 0 0 0 0 0 0 1 1 2 2 0 0 0 0 0 0 0 0 290 332 642 755 615 582 536 602 813 842 957 1066 1436 1671 1644 1358 620 1144 1080 1131 1092 1026 1032 900 898 1125 1221 1150 1161 1207 1111 1040 1113 1245 1268 1132 1145 1051 946 885 860 635 544 500 518 541 524 452 261 0 0 0 0 122 0 0 0 0 0 0
0 0 0 0 0 0 0 0 0 0 0 0 0 0 0 2 0 2 0 0 0 0 0 0 187 145 606 809 834 716 740 690 691 821 804 930 1080 1187 1465 1560 1225 865 896 1109 1071 952 961 874 1016 998 971 1094 1202 1178 1178 1178 1168 1001 903 1080 1154 1184 1141 1037 957 886 885 865 673 532 463 474 374 312 0 0 0 0 0 204 0 0 0 0 0 0
0 0 0 0 0 0 0 0 0 0 1 7 0 0 0 0 0 0 0 0 1 0 1 0 18 362 642 664 793 813 716 757 782 840 888 1013 1129 1231 1434 1500 887 1061 1134 1204 1082 1053 835 750 857 968 1026 1084 1170 1200 1121 1076 1048 1016 813 886 924 1148 1138 1054 979 932 882 911 932 771 676 632 508 363 0 0 0 0 0 0 0 0 0 0 0 0
0 0 0 0 0 0 0 0 0 0 0 0 0 0 0 0 0 0 1 0 0 4 28 154 395 486 340 670 867 763 714 705 921 822 956 1071 1170 1240 1288 1292 865 848 1074 1133 1069 1131 796 663 732 946 986 1050 985 1229 1135 993 1032 987 931 578 721 1057 1144 1128 1037 964 882 860 884 921 857 767 587 393 0 0 0 0 0 0 0 0 0 0 0 0
0 0 0 0 0 0 0 0 0 0 0 0 0 0 0 1 0 0 0 0 0 0 0 51 218 374 230 504 580 787 644 693 808 819 867 1011 1110 1209 1260 1038 949 916 1031 931 981 958 765 672 730 840 1004 989 969 904 1122 1042 1018 960 922 878 797 954 1199 1182 1014 922 860 818 840 907 916 797 585 156 0 0 0 0 0 0 0 0 0 0 0 0
0 0 0 0 0 0 0 0 1 0 0 0 0 0 0 0 0 0 0 0 0 0 0 14 34 358 205 328 604 592 594 637 712 761 794 866 1035 1186 1237 1124 950 884 850 924 832 940 828 778 688 753 937 1030 922 883 983 1000 971 884 898 926 785 929 1044 1194 1028 854 826 815 758 752 763 635 468 47 0 0 0 0 0 0 0 0 0 0 0 0
0 0 0 0 0 0 0 0 0 0 0 0 0 0 0 0 0 0 0 0 0 0 0 131 132 0 0 239 574 620 656 680 670 715 740 797 979 1149 1191 1046 769 606 640 740 726 738 876 816 698 490 808 1036 1008 882 950 946 910 886 832 895 952 858 956 1090 1087 954 848 801 721 653 646 654 336 0 282 257 175 0 0 0 0 0 0 0 0 0
0 0 0 0 0 0 0 0 0 0 0 0 0 0 0 0 0 5 0 0 0 0 0 0 0 0 0 253 427 664 593 677 665 788 730 727 778 884 790 634 535 531 584 532 430 498 564 511 253 615 215 828 1094 974 1000 1013 940 765 760 751 785 882 905 1062 1117 986 849 791 719 734 763 530 236 330 405 310 12 0 0 0 0 0 0 0 0 0
0 0 0 0 0 0 0 0 0 0 0 0 0 0 0 0 0 0 0 0 0 0 0 0 0 0 115 400 388 681 682 683 720 699 741 681 520 413 361 247 172 136 186 110 316 276 156 124 328 380 375 648 782 1018 1033 961 809 748 809 800 794 924 819 987 1115 1072 959 897 878 835 601 303 406 540 438 291 0 0 0 0 0 0 0 0 0 0
95 0 18 2 0 0 0 0 0 0 0 0 0 0 0 0 0 0 0 0 0 0 0 0 0 230 160 352 374 670 775 740 738 746 712 641 419 392 318 235 90 20 30 146 103 142 152 105 524 102 540 514 719 890 1009 916 650 683 815 792 736 857 764 846 1033 1099 1111 1072 1004 761 518 533 653 605 490 160 0 0 0 0 0 0 0 0 0 0
12 0 2 24 0 0 0 0 0 0 0 0 0 0 0 0 0 0 0 0 0 0 0 0 0 372 417 320 350 560 716 737 721 707 640 450 330 322 443 519 364 282 256 14 115 208 62 172 165 421 378 657 702 713 672 841 803 676 725 659 688 680 774 840 934 1073 1154 1106 1027 741 679 723 691 608 372 0 0 0 0 0 0 0 0 0 0 0
31 12 0 0 0 0 0 0 0 0 37 0 0 0 0 0 0 0 0 0 0 0 0 0 0 343 373 372 412 449 467 533 566 615 646 632 602 543 190 127 89 157 490 249 446 427 393 349 70 50 54 473 601 493 327 518 656 740 642 554 580 662 727 732 789 1068 1195 1128 1026 801 701 751 691 520 248 0 0 0 0 0 0 0 0 0 0 0
1 0 0 0 2 0 0 0 0 0 0 0 0 0 0 0 0 0 0 0 0 0 0 0 76 417 348 315 422 359 370 401 432 492 572 558 367 317 161 289 86 204 517 516 439 316 29 222 307 63 132 232 518 532 360 553 665 763 778 701 672 820 889 851 746 961 1161 1165 1070 854 566 522 498 340 238 59 2 0 0 0 0 0 0 0 0 0
0 0 0 0 0 0 0 0 0 0 0 0 0 0 0 0 0 0 0 28 0 0 0 9 78 320 296 325 359 371 366 375 476 493 427 335 223 264 168 318 337 87 256 42 65 119 306 184 65 91 91 40 40 64 52 424 568 619 603 442 547 573 773 686 637 750 954 1009 915 887 642 18 61 136 34 0 0 0 0 0 0 0 0 0 0 0
8 2 0 0 0 0 0 0 0 0 0 0 0 0 0 0 0 0 0 0 0 0 0 145 231 239 364 332 281 348 249 302 416 400 191 205 179 106 249 290 256 211 270 316 80 94 64 98 81 70 266 77 224 169 256 339 408 389 397 368 111 363 345 474 406 595 661 593 554 652 572 400 200 35 6 35 25 0 0 0 0 0 0 0 0 0
6 4 0 0 0 0 0 0 0 0 0 0 0 0 0 0 1 0 0 0 0 0 44 152 148 24 266 283 249 289 229 225 354 367 236 194 113 318 352 323 232 216 174 123 115 119 133 125 88 36 264 274 269 217 157 127 135 114 140 219 19 37 177 250 287 419 483 388 346 392 330 199 166 137 34 33 54 3 0 0 0 0 0 0 0 0
0 12 0 0 0 0 0 0 0 0 0 0 0 0 0 3 0 0 0 0 0 0 14 1 2 293 97 132 270 281 192 193 362 353 284 242 223 206 282 139 73 118 124 143 102 68 58 48 62 136 236 4 60 216 227 197 202 120 94 50 13 6 82 178 213 316 504 438 370 359 130 4 48 63 27 1 16 16 0 0 0 0 0 0 0 0
2 18 0 0 1 1 0 0 0 0 0 0 0 0 0 0 7 6 2 0 0 1 4 4 3 248 4 109 143 243 184 58 141 195 270 253 187 117 147 288 227 240 283 215 174 121 50 24 51 42 64 171 0 184 212 156 127 95 125 148 46 35 155 112 74 84 152 218 274 83 6 0 0 34 5 0 0 0 0 0 0 0 0 0 23 0
0 2 1 3 4 0 0 0 0 0 0 2 1 2 0 0 0 0 3 6 7 1 4 4 4 22 3 27 56 66 74 89 147 147 133 216 153 289 249 45 150 258 276 253 189 123 51 55 33 15 10 52 106 116 188 210 186 136 96 92 6 182 163 188 180 112 95 93 136 15 11 0 6 2 0 0 4 0 0 0 0 25 36 56 34 0
3 3 2 6 1 2 0 0 0 2 1 3 0 2 0 4 1 1 6 9 15 8 0 6 11 7 5 17 98 130 98 156 189 117 86 111 86 114 96 105 74 80 121 134 126 86 42 38 10 7 29 58 92 106 140 77 134 76 136 120 122 148 167 199 195 222 162 114 0 137 0 0 0 10 0 4 0 0 0 0 0 78 109 96 25 27
7 6 5 0 11 0 4 6 0 2 6 0 3 1 1 17 12 0 4 3 16 20 20 13 12 11 10 6 13 59 53 50 76 132 98 179 131 107 118 123 126 64 62 54 56 64 31 7 8 3 0 59 20 48 32 38 5 10 46 92 124 89 108 105 174 176 162 139 51 21 102 95 64 8 10 7 0 0 0 22 166 132 115 50 0 0
14 6 7 9 5 1 6 16 3 3 0 0 3 0 0 1 1 0 0 4 7 6 14 22 32 36 28 14 4 33 38 32 46 48 81 114 116 127 74 65 146 148 82 43 18 24 18 17 13 45 72 52 0 0 0 0 0 27 16 7 64 80 45 25 58 63 106 155 107 80 97 106 120 78 0 1 0 82 108 78 1 0 0 0 0 0
20 4 4 13 17 15 7 19 0 0 0 0 1 0 0 0 0 0 6 5 2 2 6 14 28 31 31 18 14 41 34 14 8 14 22 38 39 23 33 16 25 95 105 76 34 24 9 4 27 63 63 41 62 0 0 0 1 5 18 8 2 51 51 38 14 14 0 88 78 44 27 23 20 27 42 55 62 70 125 151 24 0 107 148 113 0
70 60 24 27 16 8 9 16 1 0 0 0 3 10 6 4 0 0 2 8 3 6 6 10 39 50 33 37 27 20 11 13 2 0 1 1 4 3 2 2 4 2 8 22 20 9 2 1 4 14 12 9 16 28 6 0 0 2 7 12 10 2 4 32 14 9 6 63 10 4 35 56 74 94 102 14 39 91 20 10 1 2 19 18 0 21
107 43 57 3 9 6 12 17 2 2 0 0 2 5 6 2 2 1 1 4 3 4 13 19 17 6 12 54 54 28 34 36 22 1 1 0 1 3 1 1 0 0 0 0 0 0 0 0 2 3 2 5 15 1 0 1 0 0 0 3 3 9 3 0 0 0 5 5 9 16 0 0 12 35 42 0 3 6 24 31 16 7 54 5 5 5
126 63 86 22 16 8 5 10 15 6 0 0 1 0 0 0 3 1 10 0 2 4 3 2 9 18 1 2 2 3 1 6 8 2 2 0 0 1 2 0 1 4 1 0 1 0 0 0 0 0 0 1 0 1 2 0 0 5 2 0 0 0 0 2 0 0 0 0 0 0 1 1 3 0 2 14 24 24 16 16 34 36 10 16 13 13
94 79 41 56 21 19 2 2 6 5 0 0 2 6 1 1 2 0 0 0 0 3 2 2 8 11 6 5 2 1 0 0 2 4 2 4 0 7 8 8 9 7 5 3 0 0 0 0 0 0 0 0 0 0 0 0 2 2 3 1 1 2 4 6 0 3 0 6 4 2 0 0 0 0 10 6 6 6 2 8 22 15 15 8 71 3
26 26 20 18 49 26 15 2 1 0 0 0 0 0 0 0 0 3 0 0 5 0 1 2 2 6 5 0 0 2 0 0 1 2 1 2 2 4 6 6 8 16 8 6 4 6 5 4 2 0 0 0 0 0 0 0 0 0 0 0 1 0 1 2 0 0 0 0 0 0 0 0 0 0 0 0 0 0 0 0 15 41 46 13 27 17
0 1 17 7 23 5 1 2 0 1 0 0 0 0 0 1 0 1 2 1 3 4 1 0 0 2 2 0 4 6 8 10 9 9 8 10 7 6 6 10 11 10 6 3 5 0 1 1 0 0 0 0 0 0 0 0 0 0 0 0 0 0 0 0 0 0 0 0 0 0 0 0 0 0 0 0 0 0 0 0 0 0 0 4 2 2
10 0 4 0 0 0 0 0 0 0 0 0 0 0 1 0 2 0 0 0 1 1 4 1 2 8 8 8 11 14 17 14 17 14 9 11 7 13 9 5 2 4 3 0 0 0 0 0 0 0 0 0 0 0 0 0 0 0 0 0 0 0 0 0 0 0 1 1 0 0 0 0 0 0 0 0 0 0 0 0 0 0 0 0 0 0
0 0 1 4 6 0 0 0 1 0 0 0 0 0 1 3 3 0 0 0 0 1 0 0 0 3 9 12 16 15 17 9 4 3 4 6 4 3 6 6 6 5 2 0 1 0 0 0 0 0 0 0 0 0 0 0 0 0 0 0 0 0 0 0 0 0 0 0 4 4 0 0 0 0 0 0 0 0 0 0 0 0 0 0 0 0
0 0 0 0 0 0 0 0 0 1 1 0 0 0 0 0 0 0 0 0 1 1 0 0 0 2 4 9 5 4 3 2 2 1 2 2 2 2 3 1 1 4 6 5 5 7 2 0 0 0 0 0 0 0 0 0 0 0 0 0 0 0 0 0 0 0 0 0 0 0 0 0 0 0 0 0 0 0 0 0 0 0 0 0 0 0
0 0 0 0 0 0 0 0 0 0 1 0 1 0 0 0 0 0 0 0 2 2 4 1 0 0 0 4 9 8 4 3 0 0 0 0 0 0 0 0 0 0 0 0 0 0 0 0 0 0 0 0 0 0 0 0 0 0 0 0 0 0 0 0 0 0 0 0 0 0 0 0 0 0 0 0 0 0 0 0 0 0 0 3 4 4
0 0 0 0 0 0 0 0 0 0 0 0 1 1 0 0 0 0 0 1 2 3 1 0 0 0 0 0 2 4 5 4 0 0 1 0 0 0 0 0 0 0 0 0 0 0 0 0 0 0 0 0 0 0 0 0 0 0 0 0 0 0 0 0 0 0 0 0 0 0 0 0 0 0 0 0 0 0 0 0 0 0 0 0 0 0
0 0 0 0 1 3 0 2 3 1 0 2 3 2 1 0 0 0 0 0 0 1 4 4 2 2 0 0 2 3 3 4 2 2 1 1 2 4 4 3 3 2 2 0 0 0 0 0 0 0 0 0 0 0 0 0 0 0 0 0 0 0 0 0 0 0 0 0 0 0 0 0 0 0 0 0 0 0 0 0 0 0 0 0 0 0
0 0 0 1 0 0 2 0 2 0 0 0 1 1 2 2 0 2 3 4 4 2 1 4 3 1 1 0 0 0 0 0 0 0 1 1 0 0 0 0 0 0 0 0 0 0 0 0 0 0 0 0 0 0 0 0 0 0 0 0 0 0 0 0 0 0 0 0 0 0 0 0 0 0 0 0 0 0 0 0 0 0 0 0 0 0
0 0 0 0 0 1 6 7 7 1 1 0 4 6 5 5 4 2 4 4 3 3 1 0 1 2 0 0 0 0 0 0 0 0 0 0 0 0 0 0 0 0 0 0 0 0 0 0 0 0 0 0 0 0 0 0 0 0 0 0 0 0 0 0 0 0 0 0 0 0 0 0 0 0 0 0 0 0 0 0 0 0 0 0 0 0
Wind_Speed
nan nan nan nan nan nan nan nan nan nan nan nan nan nan nan nan nan nan nan nan nan nan nan nan nan nan nan nan nan nan 36 43 45 42 41 37 36 33 28 22 18 15 14 16 13 13 13 8 7 11 10 6 9 11 10 12 14 15 14 13 13 13 15 14 14 13 16 17 19 19 18 18 17 18 17 15 15 16 16 15 14 13 12 13 14 14
nan nan nan nan nan nan nan nan nan nan nan nan nan nan nan nan nan nan nan nan nan nan nan nan nan nan nan nan nan nan 37 36 38 38 37 34 33 31 27 22 18 17 20 16 14 15 14 10 9 12 11 7 13 11 10 12 13 14 15 14 12 12 14 14 13 13 14 14 16 18 18 17 16 16 14 12 12 11 11 10 10 11 13 14 14 15
nan nan nan nan nan nan nan nan nan nan nan nan nan nan nan nan nan nan nan nan nan nan nan nan nan nan nan nan nan nan 32 32 35 36 34 32 30 26 24 22 20 18 14 13 14 15 13 11 10 12 12 8 11 11 11 13 14 14 13 13 13 13 15 14 14 14 15 15 17 18 17 17 17 17 14 12 11 10 10 9 8 9 12 14 16 16
nan nan nan nan nan nan nan nan nan nan nan nan nan nan nan nan nan nan nan nan nan nan nan nan nan nan nan nan nan nan nan 33 31 27 29 28 26 23 21 22 19 15 13 12 14 13 13 11 10 13 11 10 12 11 11 13 13 12 12 13 13 14 15 15 15 16 18 19 20 20 20 20 19 16 16 17 16 14 13 13 12 13 14 15 16 16
nan nan nan nan nan nan nan nan nan nan nan nan nan nan nan nan nan nan nan nan nan nan nan nan nan nan nan nan nan 31 30 30 32 30 27 23 20 22 26 23 18 13 12 14 14 13 13 13 12 14 10 10 11 10 11 12 12 11 14 14 15 15 16 15 17 19 20 22 23 21 22 23 24 22 19 19 20 18 17 17 16 16 17 17 16 15
nan nan nan nan nan nan nan nan nan nan nan nan nan nan nan nan nan nan nan nan nan nan nan nan nan nan nan 28 29 29 32 29 29 27 21 21 20 21 19 18 16 12 12 11 11 13 14 13 13 16 10 11 12 12 11 11 12 13 15 15 16 16 17 16 18 20 20 21 23 22 23 22 22 21 19 18 18 19 18 16 17 18 17 16 16 14
nan nan nan nan nan nan nan nan nan nan nan nan nan nan nan nan nan nan nan nan nan nan nan nan nan nan nan 28 27 28 28 27 30 23 19 20 19 16 15 16 13 10 11 14 16 14 13 13 13 17 11 13 16 14 13 11 12 14 15 15 16 17 17 17 18 19 20 22 21 21 22 22 21 21 18 20 20 20 20 19 17 16 17 16 14 14
nan nan nan nan nan nan nan nan nan nan nan nan nan nan nan nan nan nan nan nan nan nan nan nan nan nan nan nan 22 22 25 27 25 20 16 14 13 11 16 19 16 12 11 15 15 13 12 13 14 17 14 16 17 14 13 12 12 14 15 15 16 17 17 16 17 17 18 20 20 23 23 22 21 19 18 18 20 22 21 19 17 17 17 18 16 15
nan nan nan nan nan nan nan nan nan nan nan nan nan nan nan nan nan nan nan nan nan nan nan nan nan nan nan 18 23 26 26 24 19 15 11 7 7 12 18 19 16 15 16 16 15 13 13 15 16 16 17 17 16 13 12 11 12 14 15 14 16 18 17 17 17 18 17 18 20 22 23 23 20 21 20 19 20 22 21 20 19 20 20 21 21 19
nan nan nan nan nan nan nan nan nan nan nan nan nan nan nan nan nan nan nan nan nan nan nan nan nan nan nan nan 29 27 24 19 15 16 13 9 10 14 17 18 17 19 20 19 17 15 14 16 17 16 16 18 14 13 13 13 13 15 15 14 16 18 17 18 19 20 20 19 20 22 21 23 23 23 23 21 20 20 20 22 22 22 23 nan nan nan
nan nan nan nan nan nan nan nan nan nan nan nan nan nan nan nan nan nan nan nan nan nan nan nan nan nan nan nan 23 21 19 20 22 19 15 12 12 14 16 17 18 20 22 21 18 17 17 18 19 16 17 18 15 14 13 12 12 13 14 15 17 17 17 17 19 20 21 21 20 21 22 23 24 24 23 22 22 22 22 24 23 23 nan nan nan nan
nan nan nan nan nan nan nan nan nan nan nan nan nan nan nan nan nan nan nan nan nan nan nan nan nan nan nan nan nan 21 22 21 20 18 17 15 13 14 17 18 20 22 22 21 19 18 19 21 20 16 17 20 16 14 13 10 11 13 14 15 17 16 15 16 18 19 19 21 21 21 22 23 24 23 21 20 20 20 22 23 23 nan nan nan nan nan
nan nan nan nan nan nan nan nan nan nan nan nan nan nan nan nan nan nan nan nan nan nan nan nan nan nan nan 24 24 25 22 22 20 20 20 20 18 19 21 23 25 28 27 24 22 20 16 18 20 18 17 20 18 14 12 11 11 13 14 15 16 15 14 16 17 18 19 20 21 22 21 21 22 22 nan 20 nan nan nan 20 22 nan nan nan nan nan
nan nan nan nan nan nan nan nan nan nan nan nan nan nan nan nan nan nan nan nan nan nan nan nan nan nan nan 27 25 24 24 23 22 22 25 24 22 25 27 29 32 34 35 31 24 19 15 15 19 19 18 19 19 16 12 11 12 13 14 14 15 14 14 15 17 18 18 19 20 20 19 18 20 20 nan 20 21 18 15 16 19 nan nan nan nan nan
nan nan nan nan nan nan nan nan nan nan nan nan nan nan nan nan nan nan nan nan nan nan nan nan nan nan 26 25 28 24 23 29 28 27 29 28 27 27 28 30 31 30 27 24 23 19 16 19 20 21 22 21 21 18 14 13 14 15 15 15 15 15 14 15 16 17 17 16 16 16 16 17 18 18 19 nan nan nan nan 17 nan nan nan nan nan nan
nan nan nan nan nan nan nan nan nan nan nan nan nan nan nan nan nan nan nan nan nan nan nan nan 26 24 24 25 26 25 31 35 33 32 30 28 28 30 31 36 31 27 26 27 24 23 18 22 22 23 25 24 23 20 17 16 16 17 17 16 16 15 14 15 16 16 16 15 13 14 16 17 18 17 nan nan nan nan nan 20 nan nan nan nan nan nan
nan nan nan nan nan nan nan nan nan nan nan nan nan nan nan nan nan nan nan nan nan nan nan nan nan 26 24 27 30 33 34 34 32 30 28 27 28 30 30 32 30 26 26 28 24 21 22 25 25 26 26 26 25 20 19 17 16 17 18 19 18 18 17 16 17 17 16 16 16 15 17 18 19 18 nan nan nan nan nan nan nan nan nan nan nan nan
nan nan nan nan nan nan nan nan nan nan nan nan nan nan nan nan nan nan nan nan nan nan nan 31 29 26 28 24 30 33 35 33 32 29 27 24 25 27 26 27 26 27 27 29 25 22 24 24 25 25 24 24 24 21 20 18 17 18 20 20 19 21 20 18 18 17 16 17 17 16 17 18 18 18 nan nan nan nan nan nan nan nan nan nan nan nan
nan nan nan nan nan nan nan nan nan nan nan nan nan nan nan nan nan nan nan nan nan nan nan nan 29 27 27 26 30 30 31 30 31 32 31 31 30 32 32 29 25 28 27 28 29 24 26 24 22 21 23 23 23 22 18 19 19 20 21 21 24 24 22 18 15 16 17 17 17 17 17 18 18 17 nan nan nan nan nan nan nan nan nan nan nan nan
nan nan nan nan nan nan nan nan nan nan nan nan nan nan nan nan nan nan nan nan nan nan nan nan nan 29 30 28 29 27 29 29 28 33 33 35 36 35 34 33 29 28 29 31 33 31 29 25 20 19 20 23 24 23 19 19 19 21 23 27 26 20 10 13 15 16 18 18 18 19 19 18 19 nan nan nan nan nan nan nan nan nan nan nan nan nan
nan nan nan nan nan nan nan nan nan nan nan nan nan nan nan nan nan nan nan nan nan nan nan 25 28 nan nan 30 30 27 28 27 26 32 34 35 38 39 37 35 31 30 30 30 32 33 30 22 19 21 22 24 24 24 24 22 21 24 27 25 21 16 14 18 18 17 19 21 21 23 23 23 23 nan 21 20 18 nan nan nan nan nan nan nan nan nan
nan nan nan nan nan nan nan nan nan nan nan nan nan nan nan nan nan nan nan nan nan nan nan nan nan nan nan 31 31 30 31 29 31 32 33 33 33 31 31 31 30 31 31 31 33 33 28 28 25 23 22 23 26 27 28 27 27 25 22 19 19 22 20 18 20 21 23 24 25 24 24 25 25 25 23 23 nan nan nan nan nan nan nan nan nan nan
nan nan nan nan nan nan nan nan nan nan nan nan nan nan nan nan nan nan nan nan nan nan nan nan nan nan 24 27 30 31 33 32 30 30 29 29 29 28 30 31 29 31 33 35 34 31 29 28 25 23 22 22 24 26 28 29 26 21 17 20 27 26 19 18 21 24 26 27 27 27 26 26 27 26 26 24 nan nan nan nan nan nan nan nan nan nan
nan nan nan nan nan nan nan nan nan nan nan nan nan nan nan nan nan nan nan nan nan nan nan nan nan 24 24 28 28 29 31 32 29 28 28 27 27 27 28 30 nan nan nan 32 32 28 26 24 22 21 20 21 24 27 26 26 27 27 25 24 23 21 19 21 23 25 25 25 26 27 28 27 26 27 26 24 nan nan nan nan nan nan nan nan nan nan
nan nan nan nan nan nan nan nan nan nan nan nan nan nan nan nan nan nan nan nan nan nan nan nan nan 23 23 27 28 26 29 32 32 30 28 29 28 29 31 32 32 31 31 nan 33 29 nan 23 20 19 18 20 25 26 28 28 27 25 25 23 20 21 23 23 24 23 22 23 24 24 26 26 26 26 24 nan nan nan nan nan nan nan nan nan nan nan
nan nan nan nan nan nan nan nan nan nan nan nan nan nan nan nan nan nan nan nan nan nan nan nan nan 19 23 27 29 29 31 33 33 31 31 29 28 27 29 31 nan 33 29 28 29 30 26 20 nan nan nan 21 21 22 23 25 26 26 27 27 26 26 26 26 24 22 20 21 23 22 22 24 25 25 25 nan nan nan nan nan nan nan nan nan nan nan
nan nan nan nan nan nan nan nan nan nan nan nan nan nan nan nan nan nan nan nan nan nan nan nan nan 25 24 25 26 29 31 32 32 30 29 27 27 26 27 28 nan 34 33 31 27 25 nan 25 23 nan 24 23 20 19 19 21 24 26 26 28 27 27 27 27 27 23 21 22 22 23 23 24 24 26 28 nan nan nan nan nan nan nan nan nan nan nan
nan nan nan nan nan nan nan nan nan nan nan nan nan nan nan nan nan nan nan nan nan nan nan nan nan 29 25 27 28 30 31 31 29 28 28 26 26 25 26 28 29 nan 32 nan nan 28 25 23 nan nan nan nan nan nan nan 20 22 25 25 25 25 27 26 26 26 22 21 22 23 24 24 nan nan 26 nan nan nan nan nan nan nan nan nan nan nan nan
nan nan nan nan nan nan nan nan nan nan nan nan nan nan nan nan nan nan nan nan nan nan nan 29 30 32 31 29 29 29 30 30 30 29 28 26 26 25 27 30 30 26 24 27 nan nan nan nan nan nan 19 nan 19 19 19 19 21 23 25 25 26 28 27 26 25 23 20 18 19 21 21 22 26 nan nan nan nan nan nan nan nan nan nan nan nan nan
nan nan nan nan nan nan nan nan nan nan nan nan nan nan nan nan nan nan nan nan nan nan nan 37 39 nan 33 31 31 30 30 31 29 27 28 30 28 25 25 27 25 21 21 21 21 21 22 23 nan nan 21 19 19 18 18 18 19 21 22 24 nan nan 23 25 25 24 22 21 18 17 17 19 22 24 nan nan nan nan nan nan nan nan nan nan nan nan
nan nan nan nan nan nan nan nan nan nan nan nan nan nan nan nan nan nan nan nan nan nan nan nan nan 36 nan 35 35 33 31 32 33 35 32 29 28 28 29 28 nan 21 19 19 21 nan nan nan nan 25 24 nan nan 21 20 19 20 21 nan nan nan nan nan 25 25 23 23 22 21 21 22 nan nan nan nan nan nan nan nan nan nan nan nan nan nan nan
nan nan nan nan nan nan nan nan nan nan nan nan nan nan nan nan nan nan nan nan nan nan nan nan nan 33 nan 35 36 36 36 nan 37 34 32 30 30 30 31 29 28 27 26 23 22 25 nan nan nan nan nan 25 nan 25 24 23 23 nan 24 25 nan nan 27 28 nan nan 25 24 22 nan nan nan nan nan nan nan nan nan nan nan nan nan nan nan nan nan
nan nan nan nan nan nan nan nan nan nan nan nan nan nan nan nan nan nan nan nan nan nan nan nan nan nan nan nan nan nan nan nan 36 33 32 33 31 32 32 nan 30 30 29 28 30 33 nan nan nan nan nan nan 26 27 25 24 27 26 nan nan nan 28 30 32 31 31 nan nan 26 nan nan nan nan nan nan nan nan nan nan nan nan nan nan nan nan nan
nan nan nan nan nan nan nan nan nan nan nan nan nan nan nan nan nan nan nan nan nan nan nan nan nan nan nan nan nan 38 nan 37 36 35 nan 32 nan 33 nan 30 nan nan 29 30 28 nan nan nan nan nan nan nan nan 26 26 nan 29 nan 27 28 29 31 30 33 34 35 34 33 nan 29 nan nan nan nan nan nan nan nan nan nan nan nan 22 nan nan nan
nan nan nan nan nan nan nan nan nan nan nan nan nan nan nan nan nan nan nan nan nan nan nan nan nan nan nan nan nan nan nan nan nan 38 nan 34 31 31 33 32 30 nan nan nan nan nan nan nan nan nan nan nan nan nan nan nan nan nan nan nan 32 nan 33 34 36 37 36 36 nan nan 35 nan nan nan nan nan nan nan nan nan 27 26 25 nan nan nan
nan nan nan nan nan nan nan nan nan nan nan nan nan nan nan nan nan nan nan nan nan nan nan nan nan nan nan nan nan nan nan nan nan nan nan 35 32 31 nan nan 32 30 nan nan nan nan nan nan nan nan nan nan nan nan nan nan nan nan nan nan nan nan nan nan nan nan 36 37 37 nan nan 35 35 nan nan nan nan nan 30 nan nan nan nan nan nan nan
nan nan nan nan nan nan nan nan nan nan nan nan nan nan nan nan nan nan nan nan nan nan nan nan nan nan nan nan nan nan nan nan nan nan nan nan nan nan nan nan nan nan 33 nan nan nan nan nan nan nan nan nan nan nan nan nan nan nan nan nan nan nan nan nan nan nan nan nan nan nan nan nan nan nan nan nan nan nan 32 32 nan nan 29 29 27 nan
nan nan nan nan nan nan nan nan nan nan nan nan nan nan nan nan nan nan nan nan nan nan nan nan nan nan nan nan nan nan nan nan nan nan nan nan nan nan nan nan nan nan nan nan nan nan nan nan nan nan nan nan nan nan nan nan nan nan nan nan nan nan nan nan nan nan nan nan nan nan nan nan nan nan 37 nan nan nan nan nan nan nan nan nan nan nan
36 nan nan nan nan nan nan nan nan nan nan nan nan nan nan nan nan nan nan nan nan nan nan nan nan nan nan nan nan nan nan nan nan nan nan nan nan nan nan nan nan nan nan nan nan nan nan nan nan nan nan nan nan nan nan nan nan nan nan nan nan nan nan nan nan nan nan nan nan nan nan nan nan nan nan nan nan nan nan nan nan nan nan nan nan nan
34 nan nan nan nan nan nan nan nan nan nan nan nan nan nan nan nan nan nan nan nan nan nan nan nan nan nan nan nan nan nan nan nan nan nan nan nan nan nan nan nan nan nan nan nan nan nan nan nan nan nan nan nan nan nan nan nan nan nan nan nan nan nan nan nan nan nan nan nan nan nan nan nan nan nan nan nan nan nan nan nan nan nan nan nan nan
nan nan nan nan nan nan nan nan nan nan nan nan nan nan nan nan nan nan nan nan nan nan nan nan nan nan nan nan nan nan nan nan nan nan nan nan nan nan nan nan nan nan nan nan nan nan nan nan nan nan nan nan nan nan nan nan nan nan nan nan nan nan nan nan nan nan nan nan nan nan nan nan nan nan nan nan nan nan nan nan nan nan nan nan nan nan
nan nan nan nan nan nan nan nan nan nan nan nan nan nan nan nan nan nan nan nan nan nan nan nan nan nan nan nan nan nan nan nan nan nan nan nan nan nan nan nan nan nan nan nan nan nan nan nan nan nan nan nan nan nan nan nan nan nan nan nan nan nan nan nan nan nan nan nan nan nan nan nan nan nan nan nan nan nan nan nan nan nan nan nan nan nan
nan nan nan nan nan nan nan nan nan nan nan nan nan nan nan nan nan nan nan nan nan nan nan nan nan nan nan nan nan nan nan nan nan nan nan nan nan nan nan nan nan nan nan nan nan nan nan nan nan nan nan nan nan nan nan nan nan nan nan nan nan nan nan nan nan nan nan nan nan nan nan nan nan nan nan nan nan nan nan nan nan nan nan nan nan nan
nan nan nan nan nan nan nan nan nan nan nan nan nan nan nan nan nan nan nan nan nan nan nan nan nan nan nan nan nan nan nan nan nan nan nan nan nan nan nan nan nan nan nan nan nan nan nan nan nan nan nan nan nan nan nan nan nan nan nan nan nan nan nan nan nan nan nan nan nan nan nan nan nan nan nan nan nan nan nan nan nan nan nan nan nan nan
nan nan nan nan nan nan nan nan nan nan nan nan nan nan nan nan nan nan nan nan nan nan nan nan nan nan nan nan nan nan nan nan nan nan nan nan nan nan nan nan nan nan nan nan nan nan nan nan nan nan nan nan nan nan nan nan nan nan nan nan nan nan nan nan nan nan nan nan nan nan nan nan nan nan nan nan nan nan nan nan nan nan nan nan nan nan
nan nan nan nan nan nan nan nan nan nan nan nan nan nan nan nan nan nan nan nan nan nan nan nan nan nan nan nan nan nan nan nan nan nan nan nan nan nan nan nan nan nan nan nan nan nan nan nan nan nan nan nan nan nan nan nan nan nan nan nan nan nan nan nan nan nan nan nan nan nan nan nan nan nan nan nan nan nan nan nan nan nan nan nan nan nan
nan nan nan nan nan nan nan nan nan nan nan nan nan nan nan nan nan nan nan nan nan nan nan nan nan nan nan nan nan nan nan nan nan nan nan nan nan nan nan nan nan nan nan nan nan nan nan nan nan nan nan nan nan nan nan nan nan nan nan nan nan nan nan nan nan nan nan nan nan nan nan nan nan nan nan nan nan nan nan nan nan nan nan nan nan nan
nan nan nan nan nan nan nan nan nan nan nan nan nan nan nan nan nan nan nan nan nan nan nan nan nan nan nan nan nan nan nan nan nan nan nan nan nan nan nan nan nan nan nan nan nan nan nan nan nan nan nan nan nan nan nan nan nan nan nan nan nan nan nan nan nan nan nan nan nan nan nan nan nan nan nan nan nan nan nan nan nan nan nan nan nan nan
nan nan nan nan nan nan nan nan nan nan nan nan nan nan nan nan nan nan nan nan nan nan nan nan nan nan nan nan nan nan nan nan nan nan nan nan nan nan nan nan nan nan nan nan nan nan nan nan nan nan nan nan nan nan nan nan nan nan nan nan nan nan nan nan nan nan nan nan nan nan nan nan nan nan nan nan nan nan nan nan nan nan nan nan nan nan
nan nan nan nan nan nan nan nan nan nan nan nan nan nan nan nan nan nan nan nan nan nan nan nan nan nan nan nan nan nan nan nan nan nan nan nan nan nan nan nan nan nan nan nan nan nan nan nan nan nan nan nan nan nan nan nan nan nan nan nan nan nan nan nan nan nan nan nan nan nan nan nan nan nan nan nan nan nan nan nan nan nan nan nan nan nan
nan nan nan nan nan nan nan nan nan nan nan nan nan nan nan nan nan nan nan nan nan nan nan nan nan nan nan nan nan nan nan nan nan nan nan nan nan nan nan nan nan nan nan nan nan nan nan nan nan nan nan nan nan nan nan nan nan nan nan nan nan nan nan nan nan nan nan nan nan nan nan nan nan nan nan nan nan nan nan nan nan nan nan nan nan nan
Wind_Direction
nan nan nan nan nan nan nan nan nan nan nan nan nan nan nan nan nan nan nan nan nan nan nan nan nan nan nan nan nan nan 251 251 257 262 261 263 270 279 285 281 273 263 260 252 257 268 276 279 299 311 311 319 314 308 303 299 298 300 304 305 311 307 305 304 298 281 272 269 266 262 261 256 251 253 253 253 254 254 251 247 242 234 228 224 224 231
nan nan nan nan nan nan nan nan nan nan nan nan nan nan nan nan nan nan nan nan nan nan nan nan nan nan nan nan nan nan 252 262 268 269 271 275 278 283 286 282 276 260 243 250 257 263 268 275 294 310 318 316 311 305 296 297 295 297 303 310 310 304 301 301 298 285 271 266 266 264 262 257 252 258 261 253 246 243 234 231 233 230 224 220 222 228
nan nan nan nan nan nan nan nan nan nan nan nan nan nan nan nan nan nan nan nan nan nan nan nan nan nan nan nan nan nan 263 265 276 281 286 281 281 279 277 277 267 260 258 249 259 264 267 277 289 310 321 309 295 295 290 288 289 294 302 306 305 298 295 295 293 285 274 263 261 261 259 259 247 237 239 234 225 220 220 216 221 222 220 220 221 225
nan nan nan nan nan nan nan nan nan nan nan nan nan nan nan nan nan nan nan nan nan nan nan nan nan nan nan nan nan nan nan 242 251 269 278 281 281 278 283 282 276 274 276 278 269 266 268 278 291 310 318 311 295 293 285 288 291 290 292 297 296 291 286 286 286 278 270 265 258 253 253 246 242 244 237 227 220 220 224 226 225 220 224 224 224 225
nan nan nan nan nan nan nan nan nan nan nan nan nan nan nan nan nan nan nan nan nan nan nan nan nan nan nan nan nan 233 234 242 249 256 257 254 252 251 250 255 254 267 276 270 261 260 269 282 304 318 309 303 305 301 293 288 286 280 286 287 286 281 280 279 281 278 273 267 259 256 248 244 240 233 232 229 223 226 228 230 228 226 226 228 228 225
nan nan nan nan nan nan nan nan nan nan nan nan nan nan nan nan nan nan nan nan nan nan nan nan nan nan nan 231 230 229 231 238 239 256 261 259 257 256 261 264 254 253 249 257 263 263 265 283 298 310 305 304 308 307 295 280 274 274 278 279 277 272 272 273 277 279 276 273 272 266 260 253 244 244 240 237 238 235 236 237 228 226 226 227 224 222
nan nan nan nan nan nan nan nan nan nan nan nan nan nan nan nan nan nan nan nan nan nan nan nan nan nan nan 233 227 227 229 224 227 235 244 245 251 252 246 248 253 267 265 255 254 256 273 292 302 302 301 302 306 303 291 278 273 272 277 279 277 275 271 272 276 277 272 270 269 270 266 264 266 262 240 232 231 233 232 234 232 227 220 220 225 221
nan nan nan nan nan nan nan nan nan nan nan nan nan nan nan nan nan nan nan nan nan nan nan nan nan nan nan nan 227 223 220 219 218 222 233 239 247 243 231 233 234 245 260 266 267 267 284 298 297 297 295 300 301 296 293 281 272 277 283 283 277 272 271 270 275 276 278 276 268 263 259 261 265 263 255 244 235 230 233 233 228 224 217 214 215 222
nan nan nan nan nan nan nan nan nan nan nan nan nan nan nan nan nan nan nan nan nan nan nan nan nan nan nan 216 206 205 206 206 203 216 223 228 219 223 232 237 241 244 254 267 267 282 295 294 292 289 296 296 294 294 292 275 270 271 275 275 271 270 267 266 272 275 278 278 273 266 263 259 248 247 244 236 232 236 235 233 221 220 216 214 210 210
nan nan nan nan nan nan nan nan nan nan nan nan nan nan nan nan nan nan nan nan nan nan nan nan nan nan nan nan 193 198 195 190 199 212 215 221 222 234 241 246 250 255 265 271 274 278 292 289 286 283 289 289 287 280 270 256 263 267 270 272 270 268 266 267 269 271 275 278 274 269 264 261 249 242 238 234 233 236 237 235 225 220 219 nan nan nan
nan nan nan nan nan nan nan nan nan nan nan nan nan nan nan nan nan nan nan nan nan nan nan nan nan nan nan nan 199 215 204 202 201 205 214 222 235 245 250 261 260 267 273 275 278 281 286 283 284 278 294 289 278 268 264 260 265 267 270 270 268 265 265 266 269 271 275 275 276 272 266 260 253 247 246 239 228 229 232 237 230 227 nan nan nan nan
nan nan nan nan nan nan nan nan nan nan nan nan nan nan nan nan nan nan nan nan nan nan nan nan nan nan nan nan nan 209 207 201 205 196 204 209 222 238 246 251 255 258 263 270 273 276 279 285 287 281 282 288 278 266 267 264 266 270 269 267 266 263 264 262 265 269 273 274 273 268 266 260 254 252 246 241 237 236 239 240 240 nan nan nan nan nan
nan nan nan nan nan nan nan nan nan nan nan nan nan nan nan nan nan nan nan nan nan nan nan nan nan nan nan 215 210 204 206 206 206 204 208 212 218 225 224 228 232 234 238 242 238 238 246 278 285 289 273 279 278 267 267 273 268 264 264 266 267 265 260 263 266 271 271 272 273 272 268 260 255 251 nan 240 nan nan nan 243 243 nan nan nan nan nan
nan nan nan nan nan nan nan nan nan nan nan nan nan nan nan nan nan nan nan nan nan nan nan nan nan nan nan 212 215 206 202 201 202 207 222 226 231 230 229 231 233 233 229 226 233 236 235 244 270 279 268 264 264 261 256 256 258 250 254 260 263 261 256 259 264 271 273 273 273 273 272 267 262 255 nan 242 248 244 240 240 244 nan nan nan nan nan
nan nan nan nan nan nan nan nan nan nan nan nan nan nan nan nan nan nan nan nan nan nan nan nan nan nan 222 215 209 212 208 211 215 227 234 242 248 247 244 244 243 249 242 234 249 259 244 235 251 267 267 249 253 246 244 237 241 244 244 252 254 253 250 256 261 263 271 271 274 274 270 266 261 259 244 nan nan nan nan 236 nan nan nan nan nan nan
nan nan nan nan nan nan nan nan nan nan nan nan nan nan nan nan nan nan nan nan nan nan nan nan 213 218 222 212 212 216 218 217 219 229 240 246 253 253 250 252 248 243 237 230 251 268 258 242 246 254 260 243 240 241 235 238 234 237 239 244 246 247 246 251 256 258 266 266 267 267 263 257 258 252 nan nan nan nan nan 253 nan nan nan nan nan nan
nan nan nan nan nan nan nan nan nan nan nan nan nan nan nan nan nan nan nan nan nan nan nan nan nan 210 205 214 215 211 219 219 221 229 241 250 256 257 261 265 265 254 239 238 250 260 257 245 242 245 249 245 235 245 237 238 234 239 239 238 240 239 233 239 245 251 252 258 259 256 259 259 258 261 nan nan nan nan nan nan nan nan nan nan nan nan
nan nan nan nan nan nan nan nan nan nan nan nan nan nan nan nan nan nan nan nan nan nan nan 225 220 211 222 223 214 212 218 221 225 230 241 250 259 261 259 259 252 247 246 241 239 254 253 248 242 245 254 255 248 239 250 247 241 245 245 236 237 243 235 230 238 242 245 249 250 250 252 256 263 267 nan nan nan nan nan nan nan nan nan nan nan nan
nan nan nan nan nan nan nan nan nan nan nan nan nan nan nan nan nan nan nan nan nan nan nan nan 229 225 234 226 220 215 216 218 227 235 240 243 250 260 262 257 249 249 245 246 239 243 250 248 249 257 266 274 270 261 258 262 260 256 258 249 240 233 222 221 237 245 241 247 251 250 255 260 262 265 nan nan nan nan nan nan nan nan nan nan nan nan
nan nan nan nan nan nan nan nan nan nan nan nan nan nan nan nan nan nan nan nan nan nan nan nan nan 232 234 235 227 218 223 224 232 246 245 247 252 256 260 262 259 256 253 252 253 246 245 245 248 248 261 271 275 274 273 271 262 262 261 257 258 265 262 247 246 254 262 260 261 262 261 260 265 nan nan nan nan nan nan nan nan nan nan nan nan nan
nan nan nan nan nan nan nan nan nan nan nan nan nan nan nan nan nan nan nan nan nan nan nan 242 233 nan nan 238 234 231 230 237 244 257 256 255 255 255 258 260 261 260 259 257 254 250 251 254 241 242 247 254 260 273 275 273 265 256 259 269 280 293 284 265 267 264 265 263 265 270 272 271 269 nan 267 269 271 nan nan nan nan nan nan nan nan nan
nan nan nan nan nan nan nan nan nan nan nan nan nan nan nan nan nan nan nan nan nan nan nan nan nan nan nan 237 238 238 245 251 254 260 260 253 251 250 251 255 262 263 255 253 251 245 241 243 235 226 230 238 250 257 262 257 253 259 270 281 281 271 265 264 266 266 264 259 263 268 271 275 275 277 275 274 nan nan nan nan nan nan nan nan nan nan
nan nan nan nan nan nan nan nan nan nan nan nan nan nan nan nan nan nan nan nan nan nan nan nan nan nan 240 240 244 246 250 252 255 259 256 249 245 243 243 247 248 255 258 252 249 246 243 237 232 231 238 240 247 255 264 266 267 266 266 253 247 259 263 256 253 256 260 264 264 264 267 272 275 278 282 280 nan nan nan nan nan nan nan nan nan nan
nan nan nan nan nan nan nan nan nan nan nan nan nan nan nan nan nan nan nan nan nan nan nan nan nan 247 240 247 248 250 253 252 252 256 256 247 242 241 244 250 nan nan nan 250 249 246 245 244 235 229 239 246 248 252 257 265 256 241 239 251 262 270 268 254 245 247 256 264 265 262 264 267 272 278 281 281 nan nan nan nan nan nan nan nan nan nan
nan nan nan nan nan nan nan nan nan nan nan nan nan nan nan nan nan nan nan nan nan nan nan nan nan 246 243 244 244 249 250 247 246 246 249 250 245 242 242 244 246 247 247 nan 241 239 nan 236 233 236 241 246 249 247 248 246 244 245 246 251 255 250 246 246 248 252 259 272 277 272 269 268 273 277 279 nan nan nan nan nan nan nan nan nan nan nan
nan nan nan nan nan nan nan nan nan nan nan nan nan nan nan nan nan nan nan nan nan nan nan nan nan 244 250 248 244 242 247 248 244 243 243 242 243 245 246 248 nan 250 246 242 237 235 235 234 nan nan nan 246 252 259 258 253 244 239 241 240 237 236 233 236 246 255 264 269 273 272 270 270 271 272 272 nan nan nan nan nan nan nan nan nan nan nan
nan nan nan nan nan nan nan nan nan nan nan nan nan nan nan nan nan nan nan nan nan nan nan nan nan 263 259 254 249 247 241 244 244 242 242 243 244 247 253 256 nan 253 246 238 235 236 nan 233 231 nan 235 236 247 254 252 250 244 242 242 238 235 231 236 244 252 254 258 257 262 263 259 261 263 263 266 nan nan nan nan nan nan nan nan nan nan nan
nan nan nan nan nan nan nan nan nan nan nan nan nan nan nan nan nan nan nan nan nan nan nan nan nan 260 259 255 247 244 247 248 247 245 244 247 248 249 254 260 259 nan 247 nan nan 231 235 238 nan nan nan nan nan nan nan 244 241 243 243 243 242 244 248 257 265 261 261 270 270 266 259 nan nan 262 nan nan nan nan nan nan nan nan nan nan nan nan
nan nan nan nan nan nan nan nan nan nan nan nan nan nan nan nan nan nan nan nan nan nan nan 254 257 255 245 241 242 245 251 256 252 252 251 250 251 252 254 256 258 255 246 238 nan nan nan nan nan nan 225 nan 221 224 232 237 240 242 242 243 250 252 255 259 260 261 261 264 276 281 274 260 259 nan nan nan nan nan nan nan nan nan nan nan nan nan
nan nan nan nan nan nan nan nan nan nan nan nan nan nan nan nan nan nan nan nan nan nan nan 262 254 nan 243 244 246 250 254 257 257 258 257 252 252 255 257 255 253 244 235 232 230 232 230 228 nan nan 229 222 222 223 230 235 240 245 246 245 nan nan 249 252 248 245 246 247 247 248 248 256 266 270 nan nan nan nan nan nan nan nan nan nan nan nan
nan nan nan nan nan nan nan nan nan nan nan nan nan nan nan nan nan nan nan nan nan nan nan nan nan 251 nan 249 253 253 254 256 257 258 257 256 256 254 254 255 nan 236 225 225 228 nan nan nan nan 236 235 nan nan 233 236 235 237 239 nan nan nan nan nan 241 242 239 240 241 238 239 247 nan nan nan nan nan nan nan nan nan nan nan nan nan nan nan
nan nan nan nan nan nan nan nan nan nan nan nan nan nan nan nan nan nan nan nan nan nan nan nan nan 257 nan 255 252 249 253 nan 257 257 257 256 252 250 249 249 247 239 234 232 235 241 nan nan nan nan nan 239 nan 240 238 237 238 nan 236 235 nan nan 235 236 nan nan 237 237 238 nan nan nan nan nan nan nan nan nan nan nan nan nan nan nan nan nan
nan nan nan nan nan nan nan nan nan nan nan nan nan nan nan nan nan nan nan nan nan nan nan nan nan nan nan nan nan nan nan nan 253 253 256 255 254 253 252 nan 247 244 244 245 245 245 nan nan nan nan nan nan 236 237 236 238 241 236 nan nan nan 236 235 234 233 233 nan nan 234 nan nan nan nan nan nan nan nan nan nan nan nan nan nan nan nan nan
nan nan nan nan nan nan nan nan nan nan nan nan nan nan nan nan nan nan nan nan nan nan nan nan nan nan nan nan nan 263 nan 254 257 256 nan 252 nan 257 nan 252 nan nan 247 245 241 nan nan nan nan nan nan nan nan 233 238 nan 243 nan 237 238 237 237 237 238 235 234 232 229 nan 227 nan nan nan nan nan nan nan nan nan nan nan nan 256 nan nan nan
nan nan nan nan nan nan nan nan nan nan nan nan nan nan nan nan nan nan nan nan nan nan nan nan nan nan nan nan nan nan nan nan nan 256 nan 250 248 249 253 252 251 nan nan nan nan nan nan nan nan nan nan nan nan nan nan nan nan nan nan nan 241 nan 243 241 239 236 233 231 nan nan 226 nan nan nan nan nan nan nan nan nan 245 243 243 nan nan nan
nan nan nan nan nan nan nan nan nan nan nan nan nan nan nan nan nan nan nan nan nan nan nan nan nan nan nan nan nan nan nan nan nan nan nan 250 246 247 nan nan 246 247 nan nan nan nan nan nan nan nan nan nan nan nan nan nan nan nan nan nan nan nan nan nan nan nan 234 234 232 nan nan 234 236 nan nan nan nan nan 241 nan nan nan nan nan nan nan
nan nan nan nan nan nan nan nan nan nan nan nan nan nan nan nan nan nan nan nan nan nan nan nan nan nan nan nan nan nan nan nan nan nan nan nan nan nan nan nan nan nan 236 nan nan nan nan nan nan nan nan nan nan nan nan nan nan nan nan nan nan nan nan nan nan nan nan nan nan nan nan nan nan nan nan nan nan nan 246 245 nan nan 234 237 238 nan
nan nan nan nan nan nan nan nan nan nan nan nan nan nan nan nan nan nan nan nan nan nan nan nan nan nan nan nan nan nan nan nan nan nan nan nan nan nan nan nan nan nan nan nan nan nan nan nan nan nan nan nan nan nan nan nan nan nan nan nan nan nan nan nan nan nan nan nan nan nan nan nan nan nan 245 nan nan nan nan nan nan nan nan nan nan nan
248 nan nan nan nan nan nan nan nan nan nan nan nan nan nan nan nan nan nan nan nan nan nan nan nan nan nan nan nan nan nan nan nan nan nan nan nan nan nan nan nan nan nan nan nan nan nan nan nan nan nan nan nan nan nan nan nan nan nan nan nan nan nan nan nan nan nan nan nan nan nan nan nan nan nan nan nan nan nan nan nan nan nan nan nan nan
245 nan nan nan nan nan nan nan nan nan nan nan nan nan nan nan nan nan nan nan nan nan nan nan nan nan nan nan nan nan nan nan nan nan nan nan nan nan nan nan nan nan nan nan nan nan nan nan nan nan nan nan nan nan nan nan nan nan nan nan nan nan nan nan nan nan nan nan nan nan nan nan nan nan nan nan nan nan nan nan nan nan nan nan nan nan
nan nan nan nan nan nan nan nan nan nan nan nan nan nan nan nan nan nan nan nan nan nan nan nan nan nan nan nan nan nan nan nan nan nan nan nan nan nan nan nan nan nan nan nan nan nan nan nan nan nan nan nan nan nan nan nan nan nan nan nan nan nan nan nan nan nan nan nan nan nan nan nan nan nan nan nan nan nan nan nan nan nan nan nan nan nan
nan nan nan nan nan nan nan nan nan nan nan nan nan nan nan nan nan nan nan nan nan nan nan nan nan nan nan nan nan nan nan nan nan nan nan nan nan nan nan nan nan nan nan nan nan nan nan nan nan nan nan nan nan nan nan nan nan nan nan nan nan nan nan nan nan nan nan nan nan nan nan nan nan nan nan nan nan nan nan nan nan nan nan nan nan nan
nan nan nan nan nan nan nan nan nan nan nan nan nan nan nan nan nan nan nan nan nan nan nan nan nan nan nan nan nan nan nan nan nan nan nan nan nan nan nan nan nan nan nan nan nan nan nan nan nan nan nan nan nan nan nan nan nan nan nan nan nan nan nan nan nan nan nan nan nan nan nan nan nan nan nan nan nan nan nan nan nan nan nan nan nan nan
nan nan nan nan nan nan nan nan nan nan nan nan nan nan nan nan nan nan nan nan nan nan nan nan nan nan nan nan nan nan nan nan nan nan nan nan nan nan nan nan nan nan nan nan nan nan nan nan nan nan nan nan nan nan nan nan nan nan nan nan nan nan nan nan nan nan nan nan nan nan nan nan nan nan nan nan nan nan nan nan nan nan nan nan nan nan
nan nan nan nan nan nan nan nan nan nan nan nan nan nan nan nan nan nan nan nan nan nan nan nan nan nan nan nan nan nan nan nan nan nan nan nan nan nan nan nan nan nan nan nan nan nan nan nan nan nan nan nan nan nan nan nan nan nan nan nan nan nan nan nan nan nan nan nan nan nan nan nan nan nan nan nan nan nan nan nan nan nan nan nan nan nan
nan nan nan nan nan nan nan nan nan nan nan nan nan nan nan nan nan nan nan nan nan nan nan nan nan nan nan nan nan nan nan nan nan nan nan nan nan nan nan nan nan nan nan nan nan nan nan nan nan nan nan nan nan nan nan nan nan nan nan nan nan nan nan nan nan nan nan nan nan nan nan nan nan nan nan nan nan nan nan nan nan nan nan nan nan nan
nan nan nan nan nan nan nan nan nan nan nan nan nan nan nan nan nan nan nan nan nan nan nan nan nan nan nan nan nan nan nan nan nan nan nan nan nan nan nan nan nan nan nan nan nan nan nan nan nan nan nan nan nan nan nan nan nan nan nan nan nan nan nan nan nan nan nan nan nan nan nan nan nan nan nan nan nan nan nan nan nan nan nan nan nan nan
nan nan nan nan nan nan nan nan nan nan nan nan nan nan nan nan nan nan nan nan nan nan nan nan nan nan nan nan nan nan nan nan nan nan nan nan nan nan nan nan nan nan nan nan nan nan nan nan nan nan nan nan nan nan nan nan nan nan nan nan nan nan nan nan nan nan nan nan nan nan nan nan nan nan nan nan nan nan nan nan nan nan nan nan nan nan
nan nan nan nan nan nan nan nan nan nan nan nan nan nan nan nan nan nan nan nan nan nan nan nan nan nan nan nan nan nan nan nan nan nan nan nan nan nan nan nan nan nan nan nan nan nan nan nan nan nan nan nan nan nan nan nan nan nan nan nan nan nan nan nan nan nan nan nan nan nan nan nan nan nan nan nan nan nan nan nan nan nan nan nan nan nan
nan nan nan nan nan nan nan nan nan nan nan nan nan nan nan nan nan nan nan nan nan nan nan nan nan nan nan nan nan nan nan nan nan nan nan nan nan nan nan nan nan nan nan nan nan nan nan nan nan nan nan nan nan nan nan nan nan nan nan nan nan nan nan nan nan nan nan nan nan nan nan nan nan nan nan nan nan nan nan nan nan nan nan nan nan nan
nan nan nan nan nan nan nan nan nan nan nan nan nan nan nan nan nan nan nan nan nan nan nan nan nan nan nan nan nan nan nan nan nan nan nan nan nan nan nan nan nan nan nan nan nan nan nan nan nan nan nan nan nan nan nan nan nan nan nan nan nan nan nan nan nan nan nan nan nan nan nan nan nan nan nan nan nan nan nan nan nan nan nan nan nan nan